Orbital elements:
2022 LE1                                                 Earth MOID = 0.0187 AU
Epoch 2022 Jan. 21.0 TT = JDT 2459600.5                 Veres                   
M 298.70751              (2000.0)            P               Q                  
n   0.96839737     Peri.   63.03581     -0.68658216     -0.61948829             
a   1.0118131      Node    76.06479     +0.44591475     -0.77223642             
e   0.3920275      Incl.   23.08635     +0.57425167     -0.14101483             
P   1.02           H   25.81          G   0.15           U   6                  
Residuals in seconds of arc
220605 I41  0.5-  0.5-    220605 203  0.1-  0.0     220605 Y00  0.2+  0.2-
220605 I41  0.0   0.7+    220605 M26  0.3+  0.6+    220605 Y00  0.3+  0.2-
220605 I41 (1.1+  1.0-)   220605 204  0.4+  0.5+    220605 B37  0.3+  1.4+
220605 I41 (1.0+  0.9-)   220605 K78  0.2+  0.3+    220605 B37  0.3+  1.3+
220605 I52  0.1+  0.2-    220605 K78  0.1+  0.6+    220605 B37  0.0   1.0+
220605 I52  0.0   0.0     220605 204  0.5+  0.6+    220605 B37  0.2+  0.9+
220605 I52  0.1+  0.2-    220605 Z33  0.5+  0.3-    220605 B37  0.1+  0.6+
220605 I52  0.1+  0.2-    220605 K38  0.5+  0.7-    220605 B37  0.0   0.4+
220605 104  0.7+  0.4+    220605 I93  0.1+  0.2-    220605 B37  0.3-  0.6+
220605 104  0.8+  0.0     220605 K38  0.7-  0.6-    220605 B37  0.0   0.8+
220605 104  0.5+  0.5+    220605 I93  0.3+  0.2-    220605 B37  0.2+  0.7+
220605 L01  0.1+  0.9+    220605 I93  0.4+  0.1+    220606 807  0.3-  0.3+
220605 203  0.3+  0.6+    220605 K38  0.5+  0.7-    220606 807  0.4-  0.0
220605 L01  0.1+  0.1+    220605 Z43  0.0   0.4+    220606 807  0.4-  0.1-
220605 L01  0.1+  0.8+    220605 Z43  0.5+  0.3-    220606 807  0.1-  0.1-
220605 L01  0.6+  0.6+    220605 B49  0.9+  0.5+    220606 654  0.1+  0.1+
220605 L01  0.4+  0.3+    220605 B49  0.6+  0.2+    220606 I52  0.3+  0.1-
220605 203  0.0   0.3+    220605 B49  0.3-  0.4-    220606 I52 (3.6+  8.6+)
220605 204  0.7+  0.5+    220605 B49  0.1+  0.6+    220606 I52  0.0   0.1+
220605 Z33  0.3-  0.1-    220605 Z43  0.2+  0.0     220606 I52  0.0   0.1+
220605 M26  0.2+  0.6+    220605 B49  0.3+  0.7+    220606 654  0.0   0.0
220605 K78  0.3+  0.6+    220605 Y00  0.2+  0.7-    220606 654  0.0   0.0

Ephemeris:
2022 LE1                 a,e,i = 1.01, 0.39, 23                  q = 0.6152
Date    TT    R. A. (2000) Decl.     Delta      r    Elong.  Phase     V
2022 05 07    02 06 44.7 +56 08 08   0.2750  0.8195    40.5   126.9    28.0
...
2022 05 22    01 30 09.4 +61 17 39   0.1334  0.9283    48.0   125.8    26.6
...
2022 05 30    00 11 46.8 +66 40 12   0.06092 0.9844    59.8   117.1    24.3
...
2022 06 05    17 28 53.8 +32 28 58   0.01821 1.0249   124.3    54.9    19.2
2022 06 06    16 41 01.1 +06 09 29   0.01918 1.0315   151.1    28.4    18.5
2022 06 07    16 09 39.6 -13 39 18   0.02402 1.0380   165.2    14.4    18.6
...
2022 06 13    15 01 28.6 -44 44 07   0.07410 1.0762   143.9    33.8    21.7
...
2022 06 21    14 42 53.5 -50 25 48   0.1484  1.1242   133.9    40.6    23.5
...
2022 07 06    14 45 29.3 -52 32 52   0.2925  1.2045   123.9    44.5    25.3

M. P. C. Staff               (C) Copyright 2022 MPC           M.P.E.C. 2022-L46




More information about the Iaude mailing list